This is the latest recevied weather packets stored in our database for station/object KM4LTG. If no packets are shown the sender has not sent any weather packets the latest 1 day(s).
| Time | Temp. | Humidity | Pressure | Rain* | Wind** | Luminosity | Snow |
|---|---|---|---|---|---|---|---|
| 1836274713 | 26.67° C | 73% | 1017.4 hPa | 0 mm | 0.45 m/s, 90° | - | - |
| 1836274508 | 26.67° C | 71% | 1017.6 hPa | 0 mm | 0.45 m/s, 90° | - | - |
| 1836274423 | 26.67° C | 76% | 1017.4 hPa | 0 mm | 1.34 m/s, 68° | - | - |
| 1836274218 | 26.67° C | 73% | 1017.4 hPa | 0 mm | 0.45 m/s, 90° | - | - |
| 1778040275 | 24.44° C | 72% | 1017.1 hPa | 0 mm | 1.34 m/s, 112° | - | - |
| 1778039980 | 23.89° C | 73% | 1017.1 hPa | 0 mm | 1.34 m/s, 90° | - | - |
| 1778039681 | 23.89° C | 76% | 1017 hPa | 0 mm | 1.34 m/s, 68° | - | - |
| 1778039420 | 23.89° C | 76% | 1017 hPa | 0 mm | 1.34 m/s, 68° | - | - |
| 1778039145 | 23.33° C | 79% | 1017.1 hPa | 0 mm | 0.45 m/s, 68° | - | - |
| 1778038880 | 23.33° C | 79% | 1017.1 hPa | 0 mm | 0.45 m/s, 90° | - | - |
| 1778038612 | 23.33° C | 79% | 1017.2 hPa | 0 mm | 0.45 m/s, 68° | - | - |
| 1778030782 | 24.44° C | 76% | 1016.5 hPa | 0 mm | 0.45 m/s, 338° | - | - |
| 1778029935 | 24.44° C | 76% | 1016.3 hPa | 0 mm | 0.45 m/s, 338° | - | - |
| 1778029670 | 24.44° C | 76% | 1016.2 hPa | 0 mm | 0.45 m/s, 338° | - | - |
| 1778029381 | 24.44° C | 75% | 1016.1 hPa | 0 mm | 0.45 m/s, 338° | - | - |
| 1778029116 | 24.44° C | 75% | 1016.1 hPa | 0 mm | 0.45 m/s, 338° | - | - |
| 1778028817 | 24.44° C | 75% | 1016.1 hPa | 0 mm | 0.45 m/s, 338° | - | - |
| 1778028530 | 24.44° C | 75% | 1016 hPa | 0 mm | 0.45 m/s, 338° | - | - |
| 1778028255 | 24.44° C | 74% | 1015.9 hPa | 0 mm | 0.45 m/s, 338° | - | - |
| 1778027680 | 25° C | 74% | 1015.9 hPa | 0 mm | 0.45 m/s, 338° | - | - |
| 1778027400 | 25° C | 74% | 1015.9 hPa | 0 mm | 0.45 m/s, 338° | - | - |
| 1778027145 | 25° C | 74% | 1015.9 hPa | 0 mm | 0.45 m/s, 338° | - | - |
| 1778026860 | 25° C | 73% | 1015.8 hPa | 0 mm | 0.45 m/s, 338° | - | - |
| 1778026570 | 25° C | 73% | 1015.8 hPa | 0 mm | 0.45 m/s, 338° | - | - |
| 1778026271 | 25.56° C | 72% | 1015.7 hPa | 0 mm | 0.89 m/s, 338° | - | - |
* Rain latest hour (hover to see other rain measurements)
** Current wind speed in m/s (hover to see current wind gust speed)